Regional Weather Roundup
Issued by NWS Albany, NY

Home | Current Version | Previous Version | Graphics & Text | Print | Product List | Glossary Off
Versions: 1 2 3 4 5 6 7 8 9 10 11 12 13 14 15 16 17 18 19 20 21 22 23 24 25 26 27 28 29 30 31 32 33 34 35 36 37 38 39 40 41 42 43 44 45 46 47 48 49 50

000
ASUS41 KALY 300210
RWRALY

NEW YORK STATE HOURLY WEATHER ROUNDUP
NATIONAL WEATHER SERVICE ALBANY NY
1000 PM EDT MON JUN 29 2015

NOTE: "FAIR" INDICATES FEW OR NO CLOUDS BELOW 12,000 FEET WITH NO
SIGNIFICANT WEATHER AND/OR NO OBSTRUCTIONS TO VISIBILITY.

NYZ032-033-038>043-046>054-057>066-NYZ062>081-300300-
EAST


CITY           SKY/WX    TMP DP  RH WIND       PRES   REMARKS
ALBANY         MOCLDY    65  56  72 W5        29.93R
GLENS FALLS    PTCLDY    61  56  83 NW3       29.91R
POUGHKEEPSIE   MOCLDY    66  60  81 CALM      29.92R
NEWBURGH       PTCLDY    66  61  82 CALM      29.94R
MONTGOMERY     PTCLDY    63  60  90 CALM      29.93R
WHITE PLAINS   PTCLDY    66  58  75 CALM      29.94R
ISLIP          CLEAR     67  61  81 SW6       29.94R
NEW YORK CITY  CLEAR     75  55  49 SW7       29.93R
CENTRAL PARK   CLEAR     73  54  51 VRB3      29.97R
$$

NYZ005>009-017-018-044>046-055-056-300300-
CENTRAL


CITY           SKY/WX    TMP DP  RH WIND       PRES   REMARKS
FULTON         MOCLDY    57  54  89 CALM      29.93R
SYRACUSE       MOCLDY    60  56  86 CALM      29.93R
ROME           MOCLDY    59  56  89 CALM      29.95R
ELMIRA         MOCLDY    65  60  84 SW3       29.93R
BINGHAMTON     MOCLDY    65  54  67 CALM      29.96R
MONTICELLO     CLEAR     59  57  94 CALM      29.98R
$$

NYZ026>034-041>043-300300-
NORTH


CITY           SKY/WX    TMP DP  RH WIND       PRES   REMARKS
WATERTOWN      CLEAR     58  55  90 S3        29.92R
FORT DRUM      NOT AVBL
MASSENA        CLEAR     60  56  86 SW7       29.90R
SARANAC LAKE   PTCLDY    55  54  96 SW3       29.92R
PLATTSBURGH    CLOUDY    60  59  96 CALM      29.89R
$$

NYZ001>004-010>016-019>021-300300-
WEST


CITY           SKY/WX    TMP DP  RH WIND       PRES   REMARKS
NIAGARA FALLS  PTCLDY    64  54  69 S5        29.90R
BUFFALO        PTCLDY    67  55  65 S6        29.91R
DUNKIRK        CLOUDY    68  60  75 CALM      29.90R
JAMESTOWN      PTCLDY    61  54  77 SE5       29.94R
WELLSVILLE     CLOUDY    61  54  77 CALM      29.98R
ROCHESTER      MOCLDY    65  56  72 CALM      29.93R
PENN YAN       MOCLDY    61  58  90 CALM      29.94R
$$

             KEY
       WCI = WIND CHILL INDEX
       VSB = VISIBILITY
       HX  = HEAT INDEX
$$



USA.gov is the U.S. government's official web portal to all federal, state and local government web resources and services.